STARLINK-35873

Last updated on Sun Mar 22 2026 00:02:05 GMT+0000 (Coordinated Universal Time)

1 67860U 26034L 26080.48293849 .00225272 00000+0 11135-2 0 9997 2 67860 53.1588 152.1655 0000805 131.0642 229.0450 15.80908511 5830
UTC large
Height (km)
Speed (km/s)
/
Latitude / Longitude
Inclination (degrees)
Orbital Period (minutes)
Azimuth
Elevation
Range (km)
Doppler Factor

Next 0 passes for location: London (51.5072 / 0.1276)

Sorry there are no passes over London.